• In Russia
  • List of Countries
  • For 7 days
  • Water Temperature
  • Weather Map
  • Weather Widgets
  • user-avatar
    Login

    Hourly Weather Fier

    Today, 30 May, Saturday

    Time Temperature Precipitation Wind Pressure Humidity
    00:00 +15°C° 0 mm 1 mps 761 mmHg 77%
    01:00 +14°C° 0 mm 1 mps 761 mmHg 79%
    02:00 +14°C° 0 mm 1 mps 761 mmHg 79%
    03:00 +14°C° 0 mm 1 mps 761 mmHg 79%
    04:00 +14°C° 0 mm 1 mps 761 mmHg 78%
    05:00 +15°C° 0 mm 1 mps 761 mmHg 73%
    06:00 +18°C° 0 mm 1 mps 761 mmHg 68%
    07:00 +19°C° 0 mm 1 mps 761 mmHg 62%
    08:00 +19°C° 0 mm 2 mps 761 mmHg 57%
    09:00 +20°C° 0 mm 2 mps 760 mmHg 52%
    10:00 +23°C° 0 mm 2 mps 760 mmHg 48%
    11:00 +22°C° 0 mm 3 mps 760 mmHg 47%
    12:00 +22°C° 0 mm 4 mps 760 mmHg 47%
    13:00 +23°C° 0 mm 4 mps 760 mmHg 46%
    14:00 +22°C° 0.1 mm 5 mps 760 mmHg 49%
    15:00 +22°C° 0.1 mm 5 mps 759 mmHg 51%
    16:00 +22°C° 0.1 mm 5 mps 759 mmHg 54%
    17:00 +20°C° 0.1 mm 4 mps 759 mmHg 60%
    18:00 +19°C° 0.1 mm 4 mps 759 mmHg 66%
    19:00 +18°C° 0.1 mm 3 mps 759 mmHg 72%
    20:00 +17°C° 0.1 mm 3 mps 759 mmHg 73%
    21:00 +16°C° 0.1 mm 3 mps 760 mmHg 74%
    22:00 +16°C° 0.1 mm 3 mps 760 mmHg 76%
    23:00 +16°C° 0.1 mm 3 mps 760 mmHg 76%

    Tomorrow, 31 May, Sunday

    Time Temperature Precipitation Wind Pressure Humidity
    00:00 +14°C° 0.1 mm 3 mps 760 mmHg 76%
    01:00 +15°C° 0.1 mm 2 mps 759 mmHg 77%
    02:00 +14°C° 0.2 mm 3 mps 759 mmHg 76%
    03:00 +14°C° 0.2 mm 3 mps 759 mmHg 76%
    04:00 +14°C° 0.2 mm 3 mps 759 mmHg 75%
    05:00 +16°C° 0.1 mm 3 mps 759 mmHg 70%
    06:00 +17°C° 0.1 mm 2 mps 759 mmHg 66%
    07:00 +19°C° 0.1 mm 2 mps 759 mmHg 61%
    08:00 +20°C° 0.1 mm 3 mps 759 mmHg 58%
    09:00 +21°C° 0.1 mm 4 mps 759 mmHg 54%
    10:00 +22°C° 0.1 mm 4 mps 759 mmHg 50%
    11:00 +22°C° 0.2 mm 5 mps 759 mmHg 51%
    12:00 +22°C° 0.2 mm 6 mps 758 mmHg 53%
    13:00 +22°C° 0.2 mm 6 mps 758 mmHg 55%
    14:00 +22°C° 0.3 mm 6 mps 758 mmHg 57%
    15:00 +22°C° 0.3 mm 6 mps 758 mmHg 59%
    16:00 +21°C° 0.3 mm 5 mps 758 mmHg 61%
    17:00 +20°C° 0.4 mm 5 mps 758 mmHg 66%
    18:00 +19°C° 0.4 mm 4 mps 758 mmHg 72%
    19:00 +18°C° 0.4 mm 3 mps 757 mmHg 78%
    20:00 +17°C° 0.2 mm 3 mps 758 mmHg 80%
    21:00 +17°C° 0.2 mm 2 mps 758 mmHg 82%
    22:00 +16°C° 0.2 mm 2 mps 758 mmHg 83%
    23:00 +16°C° 0.2 mm 2 mps 758 mmHg 84%

    Day after tomorrow, 1 June, Monday

    Time Temperature Precipitation Wind Pressure Humidity
    00:00 +16°C° 0.2 mm 2 mps 758 mmHg 84%
    01:00 +15°C° 0.2 mm 2 mps 758 mmHg 84%
    02:00 +15°C° 0.2 mm 2 mps 758 mmHg 85%
    03:00 +15°C° 0.2 mm 2 mps 758 mmHg 87%
    04:00 +14°C° 0.2 mm 1 mps 757 mmHg 88%
    05:00 +16°C° 0.3 mm 1 mps 757 mmHg 82%
    06:00 +17°C° 0.3 mm 2 mps 757 mmHg 75%
    07:00 +18°C° 0.3 mm 2 mps 758 mmHg 69%
    08:00 +19°C° 0.1 mm 2 mps 758 mmHg 65%
    09:00 +20°C° 0.1 mm 2 mps 758 mmHg 61%
    10:00 +21°C° 0.1 mm 3 mps 758 mmHg 56%
    11:00 +22°C° 0.1 mm 4 mps 757 mmHg 56%
    12:00 +22°C° 0.1 mm 4 mps 757 mmHg 56%
    13:00 +22°C° 0.1 mm 5 mps 757 mmHg 55%
    14:00 +22°C° 0.1 mm 5 mps 756 mmHg 57%
    15:00 +22°C° 0.1 mm 5 mps 756 mmHg 59%
    16:00 +21°C° 0.1 mm 6 mps 756 mmHg 61%
    17:00 +20°C° 0 mm 5 mps 756 mmHg 66%
    18:00 +19°C° 0 mm 3 mps 756 mmHg 72%
    19:00 +17°C° 0 mm 2 mps 756 mmHg 78%
    20:00 +17°C° 0 mm 2 mps 757 mmHg 80%
    21:00 +16°C° 0 mm 1 mps 757 mmHg 81%
    22:00 +16°C° 0 mm 1 mps 757 mmHg 83%
    23:00 +16°C° 0 mm 1 mps 757 mmHg 83%

    2 June, Tuesday

    Time Temperature Precipitation Wind Pressure Humidity
    00:00 +15°C° 0 mm 1 mps 757 mmHg 83%
    01:00 +15°C° 0 mm 1 mps 757 mmHg 83%
    02:00 +15°C° 0 mm 1 mps 756 mmHg 83%
    03:00 +15°C° 0 mm 1 mps 756 mmHg 83%
    04:00 +14°C° 0 mm 1 mps 756 mmHg 82%
    05:00 +16°C° 0 mm 1 mps 756 mmHg 78%
    06:00 +18°C° 0 mm 1 mps 756 mmHg 73%
    07:00 +20°C° 0 mm 1 mps 756 mmHg 68%
    08:00 +20°C° 0 mm 2 mps 757 mmHg 62%
    09:00 +21°C° 0 mm 3 mps 757 mmHg 57%
    10:00 +22°C° 0 mm 4 mps 757 mmHg 52%
    11:00 +23°C° 0 mm 4 mps 757 mmHg 49%
    12:00 +23°C° 0 mm 5 mps 756 mmHg 46%
    13:00 +23°C° 0 mm 6 mps 756 mmHg 44%
    14:00 +23°C° 0 mm 6 mps 756 mmHg 45%
    15:00 +23°C° 0 mm 6 mps 756 mmHg 46%
    16:00 +22°C° 0 mm 6 mps 756 mmHg 47%
    17:00 +21°C° 0 mm 5 mps 756 mmHg 55%
    18:00 +19°C° 0 mm 4 mps 756 mmHg 63%
    19:00 +18°C° 0 mm 3 mps 756 mmHg 72%
    20:00 +17°C° 0 mm 3 mps 756 mmHg 74%
    21:00 +17°C° 0 mm 3 mps 756 mmHg 76%
    22:00 +16°C° 0 mm 3 mps 757 mmHg 79%
    23:00 +16°C° 0 mm 2 mps 756 mmHg 80%

    3 June, Wednesday

    Time Temperature Precipitation Wind Pressure Humidity
    00:00 +16°C° 0 mm 2 mps 756 mmHg 80%
    01:00 +15°C° 0 mm 2 mps 756 mmHg 81%
    02:00 +15°C° 0 mm 2 mps 756 mmHg 82%
    03:00 +15°C° 0 mm 2 mps 756 mmHg 82%
    04:00 +15°C° 0 mm 2 mps 756 mmHg 83%
    05:00 +16°C° 0 mm 2 mps 756 mmHg 77%
    06:00 +18°C° 0 mm 2 mps 756 mmHg 72%
    07:00 +20°C° 0 mm 2 mps 756 mmHg 67%
    08:00 +21°C° 0 mm 2 mps 756 mmHg 61%
    09:00 +22°C° 0 mm 3 mps 756 mmHg 54%
    10:00 +24°C° 0 mm 3 mps 756 mmHg 48%
    11:00 +24°C° 0 mm 3 mps 756 mmHg 47%
    12:00 +24°C° 0 mm 3 mps 756 mmHg 46%
    13:00 +24°C° 0 mm 3 mps 756 mmHg 46%
    14:00 +24°C° 0 mm 3 mps 756 mmHg 46%
    15:00 +24°C° 0 mm 3 mps 756 mmHg 47%
    16:00 +24°C° 0 mm 3 mps 756 mmHg 47%
    17:00 +21°C° 0 mm 3 mps 756 mmHg 55%
    18:00 +20°C° 0 mm 3 mps 756 mmHg 62%
    19:00 +19°C° 0 mm 2 mps 756 mmHg 70%
    20:00 +18°C° 0.1 mm 2 mps 757 mmHg 72%
    21:00 +18°C° 0.1 mm 2 mps 757 mmHg 74%
    22:00 +18°C° 0.1 mm 2 mps 758 mmHg 76%
    23:00 +17°C° 0.8 mm 2 mps 757 mmHg 81%

    4 June, Thursday

    Time Temperature Precipitation Wind Pressure Humidity
    00:00 +17°C° 0.8 mm 2 mps 757 mmHg 85%
    01:00 +16°C° 0.8 mm 2 mps 757 mmHg 90%
    02:00 +16°C° 0.2 mm 2 mps 757 mmHg 89%
    03:00 +16°C° 0.2 mm 2 mps 757 mmHg 88%
    04:00 +16°C° 0.2 mm 2 mps 757 mmHg 86%
    05:00 +18°C° 0 mm 1 mps 757 mmHg 81%
    06:00 +19°C° 0 mm 1 mps 757 mmHg 75%
    07:00 +20°C° 0 mm 1 mps 758 mmHg 70%
    08:00 +21°C° 0 mm 1 mps 758 mmHg 66%
    09:00 +21°C° 0 mm 2 mps 758 mmHg 63%
    10:00 +23°C° 0 mm 2 mps 758 mmHg 59%
    11:00 +22°C° 0 mm 3 mps 758 mmHg 60%
    12:00 +22°C° 0 mm 3 mps 758 mmHg 60%
    13:00 +24°C° 0 mm 3 mps 758 mmHg 61%
    14:00 +22°C° 0 mm 3 mps 758 mmHg 61%
    15:00 +22°C° 0 mm 3 mps 758 mmHg 62%
    16:00 +22°C° 0 mm 3 mps 758 mmHg 63%
    17:00 +21°C° 0 mm 2 mps 758 mmHg 68%
    18:00 +21°C° 0 mm 1 mps 758 mmHg 73%
    19:00 +19°C° 0 mm 1 mps 758 mmHg 78%
    20:00 +19°C° 0 mm 1 mps 758 mmHg 79%
    21:00 +18°C° 0 mm 1 mps 758 mmHg 81%
    22:00 +18°C° 0 mm 1 mps 759 mmHg 82%
    23:00 +16°C° 0 mm 1 mps 759 mmHg 82%
    Show more